Regional Weather Roundup
Issued by NWS

Home | Current Version | Previous Version | Text Only | Print | Product List | Glossary Off
Versions: 1 2 3 4 5 6 7 8 9 10 11 12 13 14 15 16 17 18 19 20 21 22 23 24 25 26 27 28 29 30 31 32 33 34 35 36 37 38 39 40 41 42 43 44 45 46 47 48 49 50

000
ASUS43 KBIS 110502
RWRND

NORTH DAKOTA REGIONAL WEATHER ROUNDUP
NATIONAL WEATHER SERVICE BISMARCK ND
1100 PM CST SAT DEC 10 2016

NOTE: "FAIR" INDICATES FEW OR NO CLOUDS BELOW 12,000 FEET WITH NO
SIGNIFICANT WEATHER AND/OR OBSTRUCTIONS TO VISIBILITY.


NDZ001>003-009>011-017-110600-
NORTHWEST NORTH DAKOTA

CITY           SKY/WX    TMP DP  RH WIND       PRES   REMARKS
WILLISTON      LGT SNOW   1  -4  79 SE8       29.94S VSB 3/4 WCI -13
MINOT          LGT SNOW  -3  -7  82 E7        30.04S FOG     WCI -16
MINOT AFB      LGT SNOW  -4  -8  84 E10       30.05R WCI -21
$$

NDZ018>021-031>035-040>046-110600-
SOUTHWEST NORTH DAKOTA

CITY           SKY/WX    TMP DP  RH WIND       PRES   REMARKS
BISMARCK       LGT SNOW   0  -4  83 E13       29.97F FOG     WCI -18
DICKINSON      LGT SNOW  -1  -6  79 SE3       29.86F
GARRISON         N/A     -2  -6  83 E13       29.96F WCI -20
HETTINGER ARPT LGT SNOW  -1  -5  82 W3        29.85R FOG
$$

NDZ004>008-012>016-024-026-027-054-110600-
NORTHEAST NORTH DAKOTA

CITY           SKY/WX    TMP DP  RH WIND       PRES   REMARKS
GRAND FORKS    CLOUDY    -6 -11  79 NE8       30.19F WCI -21
DEVILS LAKE    CLOUDY    -6 -10  83 E12       30.11S WCI -25
$$

NDZ022-023-025-028>030-036>039-047>053-110600-
SOUTHEAST NORTH DAKOTA

CITY           SKY/WX    TMP DP  RH WIND       PRES   REMARKS
FARGO          CLOUDY     5  -1  76 NE7       30.15F WCI  -7
JAMESTOWN      FLURRIES  -1  -6  79 E9        30.04S WCI -16
$$




USA.gov is the U.S. government's official web portal to all federal, state and local government web resources and services.